Location: Wheeling
(40.0640°N, 80.7210°W)
Time: 20:32:07
(UTC-05:00)

KAITUO 1B - Pass Details

Date: 01 November 2021
Orbit: 489 x 506 km, 97.4° (Epoch: 07 December)

Event Time Altitude Azimuth Distance (km) Brightness Sun altitude
Rises 19:29:23 0° 184° (S) 2,549 ? -13.8°
Reaches altitude 10° 19:31:32 10° 192° (SSW) 1,673 ? -14.2°
Maximum altitude 19:34:55 38° 262° (W) 761 ? -14.8°
Drops below altitude 10° 19:38:20 10° 332° (NNW) 1,690 ? -15.4°
Sets 19:40:31 0° 340° (NNW) 2,579 ? -15.9°
